Tehachapi, CA

12:18 AM PDT on April 27, 2017 (GMT -0700)
Tehachapi Municipal

Weather History for KTSP - December, 2012

Change the Weather History Date:

Saturday, December 29, 2012

  Actual Average Record
Temperature  
Mean Temperature 34 °F -  
Max Temperature 41 °F 47 °F 62 °F (2011)
Min Temperature 26 °F 28 °F 23 °F (2015)
Degree Days  
Heating Degree Days 32    
Moisture  
Dew Point 21 °F    
Average Humidity 59    
Maximum Humidity 93    
Minimum Humidity 42    
Precipitation  
Precipitation 0.00 in - - ()
Sea Level Pressure  
Sea Level Pressure 29.97 in    
Wind  
Wind Speed 11 mph (ESE)    
Max Wind Speed 21 mph    
Max Gust Speed 24 mph    
Visibility 10 miles    
Events Thunderstorm    
Averages and records for this station are not official NWS values.
T = Trace of Precipitation, MM = Missing Value Source: NWS Daily Summary

Daily Weather History Graph

Daily Weather History Graph

Search for Another Location

Airport or City:

Trip Planner

Search our weather history database for the weather conditions in past years. The results will help you decide how hot, cold, wet, or windy it might be!

Date:

Astronomy

Dec. 29, 2012 Rise Set
Actual Time 7:01 AM PST 4:50 PM PST
Civil Twilight 6:33 AM PST 5:19 PM PST
Nautical Twilight 6:01 AM PST 5:50 PM PST
Astronomical Twilight 5:30 AM PST 6:21 PM PST
Moon 6:24 PM PST (12/29) 7:41 AM PST (12/29)
Length of Visible Light 10h 45m
Length of Day
9h 49m
Full, 98% of the Moon is Illuminated
Dec 29
Full
Jan 4
Last Quarter
Jan 11
New
Jan 18
First Quarter
Jan 26
Full

Hourly Weather History & Observations

Time (PST) Temp. Windchill Dew Point Humidity Pressure Visibility Wind Dir Wind Speed Gust Speed Precip Events Conditions
12:15 AM 33.8 °F 26.4 °F 17.6 °F 52% 30.03 in 10.0 mi ESE 9.2 mph 16.1 mph N/A   Clear
12:35 AM 32.0 °F 25.6 °F 17.6 °F 55% 30.03 in 10.0 mi ESE 6.9 mph - N/A   Partly Cloudy
12:55 AM 33.8 °F 25.3 °F 17.6 °F 52% 30.03 in 10.0 mi ESE 11.5 mph 17.3 mph N/A   Scattered Clouds
1:15 AM 33.8 °F 25.8 °F 17.6 °F 52% 30.03 in 10.0 mi ESE 10.4 mph - N/A   Scattered Clouds
1:35 AM 32.0 °F 22.1 °F 17.6 °F 55% 30.03 in 10.0 mi ESE 13.8 mph - N/A   Clear
1:55 AM 32.0 °F 23.6 °F 17.6 °F 55% 30.03 in 10.0 mi ESE 10.4 mph - N/A   Clear
2:15 AM 32.0 °F 22.5 °F 17.6 °F 55% 30.02 in 10.0 mi ESE 12.7 mph - N/A   Clear
2:35 AM 32.0 °F 22.5 °F 17.6 °F 55% 30.02 in 10.0 mi ESE 12.7 mph - N/A   Clear
2:55 AM 32.0 °F 22.5 °F 17.6 °F 55% 30.01 in 10.0 mi ESE 12.7 mph - N/A   Clear
3:15 AM 32.0 °F 21.6 °F 15.8 °F 51% 30.00 in 10.0 mi ESE 15.0 mph - N/A   Partly Cloudy
3:35 AM 32.0 °F 21.6 °F 17.6 °F 55% 30.00 in 10.0 mi East 15.0 mph 20.7 mph N/A   Scattered Clouds
4:15 AM 33.8 °F 24.3 °F 17.6 °F 52% 29.98 in 10.0 mi ESE 13.8 mph - N/A   Overcast
4:35 AM 33.8 °F 22.2 °F 17.6 °F 52% 29.97 in 10.0 mi East 20.7 mph 24.2 mph N/A   Mostly Cloudy
4:55 AM 33.8 °F 24.3 °F 17.6 °F 52% 29.97 in 10.0 mi East 13.8 mph - N/A   Mostly Cloudy
5:15 AM 33.8 °F 23.5 °F 17.6 °F 52% 29.98 in 10.0 mi ESE 16.1 mph - N/A   Partly Cloudy
5:35 AM 35.6 °F 26.2 °F 17.6 °F 48% 29.98 in 10.0 mi ESE 15.0 mph 21.9 mph N/A   Clear
5:55 AM 32.0 °F 22.1 °F 17.6 °F 55% 29.98 in 10.0 mi ESE 13.8 mph - N/A   Partly Cloudy
6:15 AM 32.0 °F 22.1 °F 17.6 °F 55% 29.98 in 10.0 mi ESE 13.8 mph - N/A   Mostly Cloudy
6:35 AM 32.0 °F 22.5 °F 17.6 °F 55% 29.99 in 10.0 mi ESE 12.7 mph - N/A   Overcast
6:55 AM 32.0 °F 23.6 °F 17.6 °F 55% 30.00 in 10.0 mi ESE 10.4 mph - N/A   Overcast
7:15 AM 32.0 °F 23.0 °F 19.4 °F 60% 30.00 in 10.0 mi SE 11.5 mph - N/A   Overcast
7:35 AM 32.0 °F 22.5 °F 17.6 °F 55% 30.01 in 10.0 mi SE 12.7 mph - N/A   Mostly Cloudy
7:55 AM 33.8 °F 27.0 °F 17.6 °F 52% 30.01 in 10.0 mi ESE 8.1 mph - N/A Thunderstorm Overcast
8:15 AM 33.8 °F 24.8 °F 17.6 °F 52% 30.00 in 10.0 mi East 12.7 mph - N/A   Mostly Cloudy
8:35 AM 33.8 °F 24.3 °F 17.6 °F 52% 30.00 in 10.0 mi East 13.8 mph - N/A   Overcast
8:55 AM 35.6 °F 27.1 °F 19.4 °F 52% 30.00 in 10.0 mi ESE 12.7 mph 19.6 mph N/A   Overcast
9:15 AM 37.4 °F 28.9 °F 17.6 °F 45% 30.00 in 10.0 mi East 13.8 mph 18.4 mph N/A   Overcast
9:35 AM 39.2 °F 31.2 °F 19.4 °F 45% 30.01 in 10.0 mi East 13.8 mph 19.6 mph N/A   Scattered Clouds
9:55 AM 41.0 °F 33.1 °F 19.4 °F 42% 30.01 in 10.0 mi East 15.0 mph 20.7 mph N/A   Mostly Cloudy
10:15 AM 39.2 °F 31.2 °F 19.4 °F 45% 30.00 in 8.0 mi East 13.8 mph 18.4 mph N/A   Mostly Cloudy
10:35 AM 39.2 °F 32.5 °F 21.2 °F 49% 29.99 in 10.0 mi SE 10.4 mph 19.6 mph N/A   Scattered Clouds
10:55 AM 41.0 °F 34.3 °F 23.0 °F 49% 29.98 in 9.0 mi SE 11.5 mph 16.1 mph N/A   Scattered Clouds
11:15 AM 39.2 °F 30.8 °F 21.2 °F 49% 29.97 in 10.0 mi ESE 15.0 mph 18.4 mph N/A   Partly Cloudy
11:35 AM 39.2 °F 30.5 °F 21.2 °F 49% 29.96 in 10.0 mi ESE 16.1 mph 19.6 mph N/A   Mostly Cloudy
11:55 AM 39.2 °F 30.8 °F 19.4 °F 45% 29.95 in 10.0 mi SE 15.0 mph - N/A   Overcast
12:15 PM 39.2 °F 30.8 °F 19.4 °F 45% 29.95 in 10.0 mi SE 15.0 mph - N/A   Overcast
12:35 PM 39.2 °F 30.5 °F 19.4 °F 45% 29.93 in 10.0 mi SE 16.1 mph - N/A   Overcast
12:55 PM 37.4 °F 28.9 °F 19.4 °F 48% 29.93 in 10.0 mi SE 13.8 mph 18.4 mph N/A   Overcast
1:15 PM 37.4 °F 29.8 °F 19.4 °F 48% 29.92 in 10.0 mi SE 11.5 mph - N/A   Overcast
1:35 PM 37.4 °F 28.5 °F 21.2 °F 52% 29.92 in 10.0 mi SE 15.0 mph 19.6 mph N/A   Overcast
1:55 PM 37.4 °F 28.9 °F 19.4 °F 48% 29.92 in 10.0 mi SSE 13.8 mph - N/A   Overcast
2:15 PM 37.4 °F 30.3 °F 19.4 °F 48% 29.93 in 10.0 mi SSE 10.4 mph - N/A   Overcast
2:35 PM 39.2 °F 31.2 °F 19.4 °F 45% 29.93 in 10.0 mi SE 13.8 mph - N/A   Overcast
2:55 PM 39.2 °F 31.6 °F 19.4 °F 45% 29.93 in 10.0 mi SE 12.7 mph - N/A   Overcast
3:15 PM 37.4 °F 28.9 °F 19.4 °F 48% 29.93 in 10.0 mi SE 13.8 mph - N/A   Overcast
3:35 PM 37.4 °F 29.3 °F 19.4 °F 48% 29.93 in 10.0 mi ESE 12.7 mph - N/A   Overcast
3:55 PM 37.4 °F 31.4 °F 19.4 °F 48% 29.93 in 10.0 mi SE 8.1 mph - N/A   Overcast
4:15 PM 37.4 °F 30.8 °F 21.2 °F 52% 29.93 in 10.0 mi SE 9.2 mph - N/A   Overcast
4:35 PM 37.4 °F 31.4 °F 21.2 °F 52% 29.93 in 10.0 mi SE 8.1 mph - N/A   Overcast
4:55 PM 35.6 °F 29.9 °F 23.0 °F 60% 29.93 in 10.0 mi ESE 6.9 mph - N/A   Overcast
5:15 PM 33.8 °F 27.0 °F 21.2 °F 60% 29.94 in 10.0 mi East 8.1 mph - N/A   Overcast
5:35 PM 33.8 °F 27.7 °F 23.0 °F 65% 29.95 in 10.0 mi East 6.9 mph - N/A   Overcast
5:55 PM 32.0 °F 25.6 °F 23.0 °F 69% 29.95 in 10.0 mi East 6.9 mph - N/A   Mostly Cloudy
6:15 PM 32.0 °F 25.6 °F 23.0 °F 69% 29.95 in 10.0 mi ESE 6.9 mph - N/A   Clear
6:35 PM 32.0 °F 25.6 °F 23.0 °F 69% 29.96 in 10.0 mi East 6.9 mph - N/A   Clear
6:55 PM 32.0 °F 25.6 °F 24.8 °F 75% 29.96 in 10.0 mi East 6.9 mph - N/A   Clear
7:15 PM 32.0 °F 28.7 °F 24.8 °F 75% 29.96 in 10.0 mi ESE 3.5 mph - N/A   Scattered Clouds
7:35 PM 30.2 °F - 24.8 °F 80% 29.97 in 10.0 mi Calm Calm - N/A   Overcast
7:55 PM 30.2 °F - 24.8 °F 80% 29.97 in 10.0 mi Calm Calm - N/A   Overcast
8:15 PM 32.0 °F 28.7 °F 24.8 °F 75% 29.97 in 10.0 mi ESE 3.5 mph - N/A   Overcast
8:35 PM 30.2 °F 25.4 °F 24.8 °F 80% 29.97 in 10.0 mi East 4.6 mph - N/A   Mostly Cloudy
8:55 PM 28.4 °F - 24.8 °F 86% 29.98 in 10.0 mi Calm Calm - N/A   Mostly Cloudy
9:15 PM 28.4 °F - 24.8 °F 86% 29.98 in 10.0 mi Calm Calm - N/A   Mostly Cloudy
9:35 PM 26.6 °F - 24.8 °F 93% 29.98 in 10.0 mi Calm Calm - N/A   Scattered Clouds
9:55 PM 26.6 °F - 24.8 °F 93% 29.98 in 10.0 mi Calm Calm - N/A   Mostly Cloudy
10:15 PM 28.4 °F - 24.8 °F 86% 29.98 in 10.0 mi Calm Calm - N/A   Overcast
10:35 PM 28.4 °F 24.6 °F 24.8 °F 86% 29.98 in 10.0 mi East 3.5 mph - N/A   Overcast
10:55 PM 28.4 °F 22.2 °F 26.6 °F 93% 29.98 in 10.0 mi East 5.8 mph - N/A   Overcast
11:15 PM 30.2 °F 26.7 °F 26.6 °F 86% 29.98 in 10.0 mi ESE 3.5 mph - N/A   Overcast
11:35 PM 30.2 °F - 26.6 °F 86% 29.97 in 10.0 mi Calm Calm - N/A   Overcast
11:55 PM 30.2 °F - 26.6 °F 86% 29.97 in 10.0 mi Calm Calm - N/A   Overcast